Regional Weather Roundup
Issued by NWS

Home | Current Version | Previous Version | Graphics & Text | Print | Product List | Glossary On
Versions: 1 2 3 4 5 6 7 8 9 10 11 12 13 14 15 16 17 18 19 20 21 22 23 24 25 26 27 28 29 30 31 32 33 34 35 36 37 38 39 40 41 42 43 44 45 46 47 48 49 50
000
ASUS43 KDMX 201007
RWRIA

WEATHER ROUNDUP FOR IOWA
NATIONAL WEATHER SERVICE DES MOINES IA
500 AM CDT MON OCT 20 2014

NOTE: "FAIR" INDICATES FEW OR NO CLOUDS BELOW 12,000 FEET WITH NO
SIGNIFICANT WEATHER AND/OR OBSTRUCTIONS TO VISIBILITY.

* - THESE STATIONS ARE NOT NWS STATIONS...THUS NOT UNDER NWS
QUALITY CONTROL.  THEY ALSO DO NOT REPORT WEATHER SUCH
AS PRECIPITATION OR FOG.

IAZ001>003-012>014-020>022-031>034-043>046-201100-
   NORTHWEST IOWA

CITY           SKY/WX    TMP DP  RH WIND       PRES   REMARKS
CARROLL *      CLEAR     46  41  81 NW5       29.99R
CHEROKEE *     CLEAR     39  39 100 CALM      30.01R
DENISON *      CLEAR     41  41 100 CALM      29.98S
LE MARS *      CLEAR     37  36  93 CALM      30.03R
ORANGE CITY *  CLEAR     43  36  75 N3        30.02R
SHELDON *      CLEAR     37  36  93 W3        30.00S
SIOUX CITY     CLEAR     40  39  97 NW5       30.03R
SPENCER        CLEAR     35  33  92 W5        30.00R WCI  31
STORM LAKE *   CLEAR     45  37  76 N9        30.01R
$$

IAZ055>058-069>071-079>083-090>094-201100-
   SOUTHWEST IOWA

CITY           SKY/WX    TMP DP  RH WIND       PRES   REMARKS
ATLANTIC *     CLEAR     39  39 100 N3        29.98S
AUDUBON *      CLEAR     39  36  87 CALM      30.00R
CLARINDA *     CLEAR     48  46  93 N6        29.99R
COUNCIL BLFS * CLEAR     50  48  93 N6        29.99R
CRESTON *      CLEAR     46  46 100 NW7       29.98R
HARLAN  *      CLEAR     43  43 100 N3        30.02S
LAMONI         CLEAR     49  45  86 W7        29.96R
RED OAK *      CLEAR     43  43 100 N3        29.99R
SHENANDOAH *   CLEAR     45  45 100 CALM      29.99R
$$

IAZ047>049-059>061-072>074-084-201100-
   CENTRAL IOWA

CITY           SKY/WX    TMP DP  RH WIND       PRES   REMARKS
AMES           CLEAR     49  41  74 N9        29.96R
ANKENY *       CLEAR     50  43  76 N8        29.96R
CHARITON *     CLEAR     50  46  87 NW6       29.95R
DES MOINES     CLEAR     50  44  80 N7        29.97R
GRINNELL*      CLEAR     46  43  87 NW6       29.94R
KNOXVILLE *    CLEAR     48  43  81 NW9       29.93R
MARSHALLTOWN   CLEAR     43  40  89 NW9       29.94R
PELLA *        CLEAR     48  45  87 NW7       29.95R
PERRY *          N/A     46  43  87 NW5       29.98R
$$

IAZ004>006-015-016-023>025-035-036-201100-
   NORTH CENTRAL IOWA

CITY           SKY/WX    TMP DP  RH WIND       PRES   REMARKS
ALGONA *       CLEAR     45  39  81 NW6       29.98R
CLARION *      CLEAR     39  39 100 NW3       29.97R
ESTHERVILLE    CLEAR     41  37  86 NW8       29.98R
FORT DODGE *   CLEAR     45  37  76 NW3       29.98S
MASON CITY     CLEAR     41  39  93 NW8       29.96R
FOREST CITY *  CLEAR     43  39  87 CALM      29.96R
IOWA FALLS *     N/A     45  41  87 NW6       29.96R
$$

IAZ007>011-017>019-026>030-037>042-050>054-066-201100-
   NORTHEAST IOWA

CITY           SKY/WX    TMP DP  RH WIND       PRES   REMARKS
CEDAR RAPIDS   CLEAR     46  43  89 NW8       29.89R
CHARLES CITY * CLEAR     48  43  81 NW7       29.94R
CLINTON *      CLEAR     45  39  81 W8        29.87R
DECORAH *      PTCLDY    46  43  87 CALM      29.90R
DUBUQUE        CLEAR     49  43  80 NW12      29.85R
MONTICELLO *   CLEAR     48  45  87 NW10      29.87R
OELWEIN *      CLEAR     45  43  93 NW10      29.91R
WATERLOO       CLEAR     47  41  80 NW9       29.92R
$$

IAZ064-065-067-068-078-201100-
   EAST CENTRAL IOWA

CITY           SKY/WX    TMP DP  RH WIND       PRES   REMARKS
DAVENPORT      CLEAR     46  42  86 W8        29.86S
IOWA CITY      CLEAR     45  43  93 NW8       29.90R
MT. PLEASANT * CLEAR     52  46  82 W9        29.90S
MUSCATINE *    CLEAR     50  45  81 W7        29.89R
QUAD CITIES    CLEAR     49  44  83 W7        29.86S
$$

IAZ062-063-075>077-085>089-095>099-201100-
   SOUTHEAST IOWA

CITY           SKY/WX    TMP DP  RH WIND       PRES   REMARKS
BURLINGTON     CLEAR     51  47  86 W6        29.89R
FAIRFIELD *    CLEAR     50  45  81 W8        29.91R
FORT MADISON * CLEAR     54  48  82 W7        29.91R
KEOKUK *       CLEAR     50  48  93 W5        29.90R
OSKALOOSA *      N/A     48  45  87 NW7       29.92S
CENTERVILLE *  CLEAR     48  46  93 W6        29.95R
OTTUMWA        CLEAR     50  45  83 W9        29.92R
WASHINGTON *   CLEAR     48  46  93 W9        29.90R
$$

ABBREVIATIONS USED IN REMARKS
   TC - TEMPERATURES IN CELSIUS
  WCI - WIND CHILL INDEX
   HX - HEAT INDEX
  VSB - VISIBILITY
$$



USA.gov is the U.S. government's official web portal to all federal, state and local government web resources and services.